Time,TemperatureF,DewpointF,PressureIn,WindDirection,WindDirectionDegrees,WindSpeedMPH,WindSpeedGustMPH,Humidity,HourlyPrecipIn,Conditions,Clouds,dailyrainin,SoftwareType,DateUTC
2015-03-30 00:00:00,56.9,46.8,30.31,NE,40,0.0,1.0,69,0.00,,---,0.00,VWS V14.01,2015-03-30 04:00:00,
2015-03-30 00:06:00,56.9,46.5,30.31,NE,52,2.0,2.0,68,0.00,,---,0.00,VWS V14.01,2015-03-30 04:06:00,
2015-03-30 00:11:00,57.0,46.2,30.31,East,84,0.0,0.0,67,0.00,,---,0.00,VWS V14.01,2015-03-30 04:11:00,
2015-03-30 00:16:00,56.9,46.5,30.31,ESE,109,0.0,1.0,68,0.00,,---,0.00,VWS V14.01,2015-03-30 04:16:00,
2015-03-30 00:21:00,56.8,46.0,30.30,NE,50,0.0,1.0,67,0.00,,---,0.00,VWS V14.01,2015-03-30 04:21:00,
2015-03-30 00:26:00,56.7,45.5,30.30,ESE,106,3.0,3.0,66,0.00,,---,0.00,VWS V14.01,2015-03-30 04:26:00,
2015-03-30 00:31:00,56.7,45.5,30.30,ENE,66,0.0,0.0,66,0.00,,---,0.00,VWS V14.01,2015-03-30 04:31:00,
2015-03-30 00:36:00,56.6,45.4,30.30,East,96,0.0,1.0,66,0.00,,---,0.00,VWS V14.01,2015-03-30 04:36:00,
2015-03-30 00:41:00,56.3,45.1,30.30,East,86,0.0,0.0,66,0.00,,---,0.00,VWS V14.01,2015-03-30 04:41:00,
2015-03-30 00:46:00,56.1,44.9,30.30,East,89,0.0,0.0,66,0.00,,---,0.00,VWS V14.01,2015-03-30 04:46:00,
2015-03-30 00:51:00,55.9,44.7,30.30,ENE,63,0.0,0.0,66,0.00,,---,0.00,VWS V14.01,2015-03-30 04:51:00,
2015-03-30 00:56:00,55.7,44.9,30.30,ENE,72,0.0,0.0,67,0.00,,---,0.00,VWS V14.01,2015-03-30 04:56:00,
2015-03-30 01:01:00,55.3,44.5,30.30,ENE,74,0.0,0.0,67,0.00,,---,0.00,VWS V14.01,2015-03-30 05:01:00,
2015-03-30 01:06:00,55.0,44.3,30.30,ENE,76,0.0,0.0,67,0.00,,---,0.00,VWS V14.01,2015-03-30 05:06:00,
2015-03-30 01:11:00,54.6,44.3,30.30,NNE,32,0.0,0.0,68,0.00,,---,0.00,VWS V14.01,2015-03-30 05:11:00,
2015-03-30 01:16:00,54.7,44.0,30.30,East,93,0.0,0.0,67,0.00,,---,0.00,VWS V14.01,2015-03-30 05:16:00,
2015-03-30 01:21:00,54.9,43.4,30.30,East,86,0.0,0.0,65,0.00,,---,0.00,VWS V14.01,2015-03-30 05:21:00,
2015-03-30 01:26:00,54.9,43.0,30.30,ESE,118,0.0,0.0,64,0.00,,---,0.00,VWS V14.01,2015-03-30 05:26:00,
2015-03-30 01:31:00,54.9,42.6,30.30,East,99,0.0,0.0,63,0.00,,---,0.00,VWS V14.01,2015-03-30 05:31:00,
2015-03-30 01:36:00,54.9,42.6,30.30,East,96,0.0,0.0,63,0.00,,---,0.00,VWS V14.01,2015-03-30 05:36:00,
2015-03-30 01:41:00,54.6,42.7,30.29,East,98,0.0,0.0,64,0.00,,---,0.00,VWS V14.01,2015-03-30 05:41:00,
2015-03-30 01:46:00,54.4,42.9,30.29,East,97,0.0,0.0,65,0.00,,---,0.00,VWS V14.01,2015-03-30 05:46:00,
2015-03-30 01:51:00,54.3,43.2,30.29,SE,136,0.0,0.0,66,0.00,,---,0.00,VWS V14.01,2015-03-30 05:51:00,
2015-03-30 01:56:00,54.1,43.0,30.29,SE,136,0.0,0.0,66,0.00,,---,0.00,VWS V14.01,2015-03-30 05:56:00,
2015-03-30 02:01:00,54.0,42.5,30.28,ESE,111,0.0,0.0,65,0.00,,---,0.00,VWS V14.01,2015-03-30 06:01:00,
2015-03-30 02:06:00,54.0,42.5,30.28,SE,126,0.0,0.0,65,0.00,,---,0.00,VWS V14.01,2015-03-30 06:06:00,
2015-03-30 02:11:00,54.0,42.5,30.28,East,91,0.0,0.0,65,0.00,,---,0.00,VWS V14.01,2015-03-30 06:11:00,
2015-03-30 02:16:00,54.1,42.2,30.28,NNW,328,0.0,2.0,64,0.00,,---,0.00,VWS V14.01,2015-03-30 06:16:00,
2015-03-30 02:21:00,54.0,42.5,30.28,East,91,0.0,0.0,65,0.00,,---,0.00,VWS V14.01,2015-03-30 06:21:00,
2015-03-30 02:26:00,53.9,42.4,30.28,NE,56,0.0,1.0,65,0.00,,---,0.00,VWS V14.01,2015-03-30 06:26:00,
2015-03-30 02:31:00,54.0,42.1,30.28,ENE,75,0.0,0.0,64,0.00,,---,0.00,VWS V14.01,2015-03-30 06:31:00,
2015-03-30 02:36:00,53.9,42.0,30.28,East,91,0.0,0.0,64,0.00,,---,0.00,VWS V14.01,2015-03-30 06:36:00,
2015-03-30 02:41:00,53.7,42.2,30.28,East,81,0.0,0.0,65,0.00,,---,0.00,VWS V14.01,2015-03-30 06:41:00,
2015-03-30 02:46:00,53.3,42.2,30.28,East,81,0.0,0.0,66,0.00,,---,0.00,VWS V14.01,2015-03-30 06:46:00,
2015-03-30 02:51:00,52.9,42.3,30.28,East,81,0.0,0.0,67,0.00,,---,0.00,VWS V14.01,2015-03-30 06:51:00,
2015-03-30 02:56:00,52.4,42.2,30.28,East,81,0.0,0.0,68,0.00,,---,0.00,VWS V14.01,2015-03-30 06:56:00,
2015-03-30 03:01:00,51.9,42.1,30.28,East,81,0.0,0.0,69,0.00,,---,0.00,VWS V14.01,2015-03-30 07:01:00,